Date String (YYYY-MM-DD hh:mm:ss) UTC,Instrument flags,Ambient pressure (hPa),Sample flow (lpm),Bypass flow (lpm),Sample temperature (°C),Ambient temperature (°C),ASC tube jacket temperature (°C),LED temperature (°C),Box temperature (°C),Sample RH (%),Span deviation,Mass concentration (μg/m³),Mass concentration (μg/m³),Mass concentration (μg/m³)
DateTimeUTC,F1_M11,P_M11,Q1_M11,Q2_M11,T1_M11,T2_M11,T3_M11,T4_M11,T5_M11,U1_M11,ZSPAN_M11,X0_M11,X2_M11,X1_M11
2022-09-01 23:00:00,,0825.9,5.01,0.00,29.6,27.7,00.0,38.1,31.4,15.9,0000.0,0012.54,0006.52,0005.73
2022-09-01 23:01:00,,0825.9,5.00,0.00,29.5,26.6,00.0,38.1,31.3,16.0,0000.0,0012.85,0006.57,0005.72
2022-09-01 23:02:00,,0825.9,4.99,0.00,29.5,26.7,00.0,38.1,31.3,16.0,0000.0,0013.22,0006.58,0005.72
2022-09-01 23:03:00,,0825.8,5.01,0.00,29.4,26.9,00.0,38.0,31.2,15.3,0000.0,0013.38,0006.61,0005.71
2022-09-01 23:04:00,,0825.8,4.99,0.00,29.4,27.2,00.0,38.0,31.2,16.0,0000.0,0014.11,0006.60,0005.71
2022-09-01 23:05:00,,0825.8,5.00,0.00,29.4,27.6,00.0,38.0,31.2,16.1,0000.0,0014.53,0006.57,0005.70
2022-09-01 23:06:00,,0825.8,5.00,0.00,29.4,27.8,00.0,38.0,31.3,16.1,0000.0,0015.04,0006.56,0005.70
2022-09-01 23:07:00,,0825.8,5.01,0.00,29.5,28.1,00.0,38.1,31.4,15.4,0000.0,0015.33,0006.55,0005.71
2022-09-01 23:08:00,,0825.8,4.98,0.00,29.5,28.3,00.0,38.1,31.5,15.7,0000.0,0015.26,0006.52,0005.73
2022-09-01 23:09:00,,0825.8,5.00,0.00,29.6,27.7,00.0,38.1,31.4,15.7,0000.0,0014.59,0006.50,0005.72
2022-09-01 23:10:00,,0825.7,5.00,0.00,29.5,26.6,00.0,38.1,31.3,15.3,0000.0,0013.88,0006.51,0005.72
2022-09-01 23:11:00,,0825.7,4.99,0.00,29.5,26.6,00.0,38.1,31.3,15.6,0000.0,0013.54,0006.45,0005.71
2022-09-01 23:12:00,,0825.8,5.00,0.00,29.4,26.9,00.0,38.0,31.2,16.1,0000.0,0013.56,0006.41,0005.71
2022-09-01 23:13:00,,0825.9,4.99,0.00,29.4,27.2,00.0,38.0,31.1,16.3,0000.0,0014.19,0006.40,0005.70
2022-09-01 23:14:00,,0825.9,5.00,0.00,29.4,27.5,00.0,38.0,31.2,16.4,0000.0,0013.94,0006.40,0005.71
2022-09-01 23:15:00,,0825.7,5.00,0.00,29.4,27.8,00.0,38.0,31.3,16.0,0000.0,0013.58,0006.43,0005.72
2022-09-01 23:16:00,,0826.0,5.00,0.00,29.5,28.0,00.0,38.1,31.4,16.1,0000.0,0013.11,0006.44,0005.72
2022-09-01 23:17:00,,0825.9,5.01,0.00,29.5,28.3,00.0,38.1,31.4,15.9,0000.0,0012.44,0006.44,0005.72
2022-09-01 23:18:00,,0825.9,5.01,0.00,29.6,28.3,00.0,38.1,31.5,16.1,0000.0,0012.03,0006.41,0005.72
2022-09-01 23:19:00,,0826.0,4.98,0.00,29.6,27.3,00.0,38.1,31.4,16.4,0000.0,0012.13,0006.45,0005.72
2022-09-01 23:20:00,,0826.2,5.01,0.00,29.5,26.6,00.0,38.1,31.3,16.6,0000.0,0012.15,0006.45,0005.72
2022-09-01 23:21:00,,0825.9,5.00,0.00,29.5,26.8,00.0,38.1,31.3,16.2,0000.0,0012.33,0006.47,0005.72
2022-09-01 23:22:00,,0826.0,5.00,0.00,29.4,27.0,00.0,38.0,31.1,16.2,0000.0,0012.82,0006.52,0005.74
2022-09-01 23:23:00,,0825.8,5.00,0.00,29.4,27.3,00.0,38.0,31.2,15.3,0000.0,0012.86,0006.53,0005.75
2022-09-01 23:24:00,,0825.7,5.01,0.00,29.4,27.6,00.0,38.0,31.2,15.8,0000.0,0011.98,0006.50,0005.74
2022-09-01 23:25:00,,0825.7,5.01,0.00,29.5,27.9,00.0,38.0,31.3,16.4,0000.0,0011.47,0006.49,0005.74
2022-09-01 23:26:00,,0825.9,5.00,0.00,29.5,28.2,00.0,38.1,31.4,15.9,0000.0,0011.10,0006.48,0005.75
2022-09-01 23:27:00,,0825.7,4.99,0.00,29.5,28.4,00.0,38.1,31.5,15.6,0000.0,0010.90,0006.45,0005.76
2022-09-01 23:28:00,,0825.8,5.00,0.00,29.6,28.0,00.0,38.1,31.5,15.0,0000.0,0010.71,0006.40,0005.75
2022-09-01 23:29:00,,0825.7,5.00,0.00,29.5,26.8,00.0,38.1,31.3,15.0,0000.0,0010.76,0006.42,0005.76
2022-09-01 23:30:00,,0825.7,5.00,0.00,29.5,26.6,00.0,38.1,31.3,15.1,0000.0,0010.70,0006.40,0005.76
2022-09-01 23:31:00,,0825.7,5.01,0.00,29.5,26.8,00.0,38.1,31.2,14.9,0000.0,0011.06,0006.35,0005.75
2022-09-01 23:32:00,,0825.7,4.99,0.00,29.4,27.1,00.0,38.0,31.1,15.2,0000.0,0010.93,0006.32,0005.75
2022-09-01 23:33:00,,0825.7,5.01,0.00,29.4,27.4,00.0,38.0,31.2,15.3,0000.0,0010.38,0006.27,0005.74
2022-09-01 23:34:00,,0825.7,5.00,0.00,29.5,27.7,00.0,38.1,31.3,15.3,0000.0,0010.48,0006.27,0005.72
2022-09-01 23:35:00,,0825.7,5.01,0.00,29.5,28.0,00.0,38.1,31.4,15.0,0000.0,0010.76,0006.25,0005.72
2022-09-01 23:36:00,,0825.7,5.01,0.00,29.5,28.2,00.0,38.1,31.4,15.0,0000.0,0011.09,0006.22,0005.71
2022-09-01 23:37:00,,0825.7,5.00,0.00,29.6,28.0,00.0,38.1,31.5,15.0,0000.0,0011.05,0006.20,0005.70
2022-09-01 23:38:00,,0825.7,5.00,0.00,29.5,26.8,00.0,38.1,31.3,15.2,0000.0,0011.53,0006.24,0005.69
2022-09-01 23:39:00,,0825.7,4.99,0.00,29.5,26.5,00.0,38.1,31.3,15.3,0000.0,0011.80,0006.25,0005.68
2022-09-01 23:40:00,,0825.6,5.00,0.00,29.4,26.8,00.0,38.1,31.3,15.1,0000.0,0012.18,0006.23,0005.67
2022-09-01 23:41:00,,0825.7,4.99,0.00,29.4,27.1,00.0,38.0,31.1,14.8,0000.0,0012.28,0006.24,0005.68
2022-09-01 23:42:00,,0825.7,5.00,0.00,29.4,27.4,00.0,38.0,31.2,14.7,0000.0,0011.87,0006.25,0005.67
2022-09-01 23:43:00,,0825.7,5.00,0.00,29.4,27.7,00.0,38.0,31.2,14.8,0000.0,0011.94,0006.23,0005.67
2022-09-01 23:44:00,,0825.7,5.00,0.00,29.5,28.0,00.0,38.1,31.3,14.8,0000.0,0012.69,0006.26,0005.69
2022-09-01 23:45:00,,0825.7,5.01,0.00,29.5,28.2,00.0,38.1,31.4,15.0,0000.0,0012.93,0006.25,0005.70
2022-09-01 23:46:00,,0825.7,5.00,0.00,29.6,28.0,00.0,38.1,31.4,15.3,0000.0,0012.92,0006.27,0005.72
2022-09-01 23:47:00,,0825.7,5.00,0.00,29.5,26.8,00.0,38.1,31.3,14.9,0000.0,0012.98,0006.31,0005.74
2022-09-01 23:48:00,,0825.7,4.99,0.00,29.5,26.5,00.0,38.1,31.3,15.0,0000.0,0012.89,0006.32,0005.74
2022-09-01 23:49:00,,0825.7,5.00,0.00,29.4,26.8,00.0,38.1,31.3,15.2,0000.0,0012.81,0006.35,0005.77
2022-09-01 23:50:00,,0825.7,5.01,0.00,29.4,27.0,00.0,38.0,31.1,15.1,0000.0,0012.73,0006.39,0005.79
2022-09-01 23:51:00,,0825.7,4.99,0.00,29.4,27.4,00.0,38.0,31.1,15.3,0000.0,0012.36,0006.45,0005.82
2022-09-01 23:52:00,,0825.7,5.00,0.00,29.4,27.7,00.0,38.0,31.2,15.2,0000.0,0012.36,0006.49,0005.83
2022-09-01 23:53:00,,0825.7,5.01,0.00,29.4,28.0,00.0,38.1,31.3,15.5,0000.0,0012.31,0006.51,0005.84
2022-09-01 23:54:00,,0825.7,5.01,0.00,29.5,28.2,00.0,38.1,31.4,15.4,0000.0,0012.54,0006.56,0005.85
2022-09-01 23:55:00,,0825.7,4.98,0.00,29.5,28.3,00.0,38.1,31.5,15.4,0000.0,0011.76,0006.56,0005.87
2022-09-01 23:56:00,,0825.7,5.00,0.00,29.6,27.6,00.0,38.1,31.4,15.6,0000.0,0011.32,0006.56,0005.86
2022-09-01 23:57:00,,0825.7,5.02,0.00,29.5,26.6,00.0,38.1,31.3,16.0,0000.0,0011.23,0006.58,0005.88
2022-09-01 23:58:00,,0825.7,4.99,0.00,29.5,26.6,00.0,38.1,31.3,16.3,0000.0,0011.46,0006.57,0005.88
2022-09-01 23:59:00,,0825.7,5.00,0.00,29.4,26.9,00.0,38.1,31.2,16.3,0000.0,0011.71,0006.62,0005.88
